STARLINK-35357

Last updated on Mon Oct 20 2025 00:02:07 GMT+0000 (Coordinated Universal Time)

1 65799U 25218J 25292.26363602 .00111723 00000+0 20235-2 0 9990 2 65799 97.6023 152.8384 0002118 85.1556 274.9937 15.49235135 3640
UTC large
Height (km)
Speed (km/s)
/
Latitude / Longitude
Inclination (degrees)
Orbital Period (minutes)
Azimuth
Elevation
Range (km)
Doppler Factor

Next 0 passes for location: London (51.5072 / 0.1276)

Sorry there are no passes over London.